Regional Weather Roundup
Issued by NWS Cleveland, OH

Home | Current Version | Previous Version | Graphics & Text | Print | Product List | Glossary On
Versions: 1 2 3 4 5 6 7 8 9 10 11 12 13 14 15 16 17 18 19 20 21 22 23 24 25 26 27 28 29 30 31 32 33 34 35 36 37 38 39 40 41 42 43 44 45 46 47 48 49 50
000
ASUS41 KCLE 191600
RWRCLE
OHIO REGIONAL WEATHER ROUNDUP
NATIONAL WEATHER SERVICE WILMINGTON, OH
1200 PM EDT TUE SEP 19 2017

NOTE: "FAIR" INDICATES FEW OR NO CLOUDS BELOW 12,000 FEET WITH NO
SIGNIFICANT WEATHER AND/OR OBSTRUCTIONS TO VISIBILITY.

OHZ001>008-015>018-024>027-034-035-043-044-191700-
   NORTHWEST OHIO

CITY           SKY/WX    TMP DP  RH WIND       PRES   REMARKS
DEFIANCE       CLOUDY    70  67  90 E9        29.97F
FINDLAY        CLOUDY    69  65  86 SE5       30.00R
TOLEDO EXPRESS LGT RAIN  66  32  28 E6        29.98F
TOLEDO EXEC    LGT RAIN  69  67  93 E5        30.00F FOG
LIMA           PTSUNNY   72  68  87 SE8       29.99F
$$

OHZ009>014-019>023-028>033-038-089-191700-
   NORTHEAST OHIO

CITY           SKY/WX    TMP DP  RH WIND       PRES   REMARKS
CLE-HOPKINS    CLOUDY    79  64  60 S5        30.03R
CLE-LAKEFRONT  CLOUDY    76  63  64 S5        30.00S
CUY CO. ARPT   PTSUNNY   81  66  61 S8        30.02S
LORAIN-ELYRIA  CLOUDY    73  61  65 S7        30.01S
ASHTABULA      FAIR      77  66  68 S9        30.04F
AKRON-CANTON   PTSUNNY   82  63  52 SW8       30.03S
WOOSTER        NOT AVBL
MANSFIELD      CLOUDY    75  64  68 S10       30.03R
YOUNGSTOWN     CLOUDY    78  66  66 VRB5      30.04F
$$

OHZ042-051>053-060>062-070>072-077>081-191700-
  SOUTHWEST OHIO

CITY           SKY/WX    TMP DP  RH WIND       PRES   REMARKS
CINC-COVINGTON LGT RAIN  70  70 100 S8        30.02S FOG
CINC-LUNKEN    LGT RAIN  70  70 100 S6        30.03S FOG
HAMILTON       RAIN      71  70  96 CALM      30.02S FOG
DAYTON         NOT AVBL
WRIGHT-PAT AFB NOT AVBL
DAYTON GENERAL CLOUDY    71  66  84 SW9       30.02R
WILMINGTON     CLOUDY    70  68  93 SW12      30.03R
$$

OHZ036-037-039>041-045>050-054>059-063>069-073>076-082>088-191700-
  CENTRAL AND SOUTHEAST OHIO

CITY           SKY/WX    TMP DP  RH WIND       PRES   REMARKS
COLUMBUS       CLOUDY    75  66  73 S6        30.01S
OSU AIRPORT    PTSUNNY   77  68  73 SW6       30.02R
BOLTON FIELD   CLOUDY    75  66  73 SW3       30.03R
RICKENBACK AFB NOT AVBL
NEWARK         CLOUDY    74  65  73 SW5       30.01F
MARION         CLOUDY    74  63  68 SW9       30.03R
LANCASTER      CLOUDY    76  66  71 S6        30.02S
ZANESVILLE     CLOUDY    76  65  68 SW5       30.03S
NEW PHILLY     CLOUDY    80  66  62 VRB3      30.03S
$$




USA.gov is the U.S. government's official web portal to all federal, state and local government web resources and services.